Казлу-Руда

Литва     54˚45′05″N   23˚29′54″E
темп.,
°C
ветер,
м/с
пор.,
м/с
влажн.,
%
обл.,
%
осадки,
мм/ч
давл.,
гПа
погр.,
м
5 декабря, сб
сб523:00+3˚ююв81787100 0.0 1013659
02:00+4˚ююв91989100 0.0 1013579
05:00+4˚ююв8188975 0.0 1014572
08:00+5˚ююв8188987 0.0 1014586
11:00+6˚ююв91886100 0.0 1015620
14:00+7˚ююв9168490 0.0 1016665
17:00+7˚ююв9178496 0.0 1017697
20:00+7˚ююв8168498 0.0 1018698
6 декабря, вс
вс623:00+7˚ююв81583100 0.0 1019726
02:00+7˚ююв8158395 0.0 1021732
05:00+6˚ююв8158298 0.0 1020765
08:00+6˚ююв8158199 0.0 1022776
11:00+5˚ююв91576100 0.0 1022797
14:00+4˚юв9157698 0.0 1023747
17:00+3˚юв8167495 0.0 1023726
20:00+2˚юв8187077 0.0 1024684
7 декабря, пн
пн723:00+1˚юв817550 0.0 1024640
02:00юв817520 0.0 1024636
05:00−1˚юв816500 0.0 1023661
08:00−1˚юв918510 0.0 1023687
11:00юв916470 0.0 1023776
14:00+1˚юв916440 0.0 1023813
17:00−1˚юв816440 0.0 1022767
20:00−2˚юв917460 0.0 1023699
8 декабря, вт
вт823:00−2˚юв816556 0.0 1022789
02:00−3˚юв816653 0.0 1022873
05:00−3˚юв8166720 0.0 1021789
08:00−3˚юв8156821 0.0 1021827
11:00−2˚юв9166392 0.0 1021825
14:00−1˚юв8146196 0.0 1021729
17:00−2˚юв7146293 0.0 1021675
20:00−2˚юв7146197 0.0 1022682
9 декабря, ср
ср923:00−2˚юв7126295 0.0 1022619
02:00−3˚юв6126594 0.0 1023561
05:00−3˚юв5116875 0.0 1023516
08:00−3˚вюв5106873 0.0 1023472
11:00−1˚вюв61063100 0.0 1023506
14:00−1˚вюв596396 0.0 1022532
17:00−1˚вюв5106687 0.0 1021518
20:00−2˚вюв5107894 0.0 1021471